Weather History for Milwaukee, WI

Change the Weather History Date:

Sunday, February 17, 2013

  Actual Average Record
Temperature  
Mean Temperature 19 °F 26 °F  
Max Temperature 29 °F 33 °F 55 °F (1981)
Min Temperature 8 °F 20 °F -16 °F (1885)
Degree Days  
Heating Degree Days 46 39  
Month to date heating degree days 733 689  
Since 1 July heating degree days 4318 4574  
Cooling Degree Days 0 0  
Month to date cooling degree days 0 0  
Year to date cooling degree days 0 0  
Moisture  
Dew Point 3 °F    
Average Humidity 54    
Maximum Humidity 69    
Minimum Humidity 39    
Precipitation  
Precipitation 0.00 in 0.06 in 1.18 in (2008)
Month to date precipitation 1.33 0.94  
Year to date precipitation 4.50 2.70  
Snow  
Snow 0.00 in 0.30 in 3.50 in (1901)
Month to date snowfall 10.5 6.0  
Since 1 July snowfall 21.9 34.0  
Snow Depth T in    
Sea Level Pressure  
Sea Level Pressure 30.17 in    
Wind  
Wind Speed 6 mph (SSW)    
Max Wind Speed 14 mph    
Max Gust Speed 18 mph    
Visibility 10 miles    
Events      
T = Trace of Precipitation, MM = Missing Value Source: NWS Daily Summary

Daily Weather History Graph

Daily Weather History Graph

Search for Another Location

Airport:

Trip Planner

Search our weather history database for the weather conditions in past years. The results will help you decide how hot, cold, wet, or windy it might be!

Date:

Astronomy

Feb. 17, 2013 Rise Set
Actual Time 6:45 AM CST 5:26 PM CST
Civil Twilight 6:16 AM CST 5:55 PM CST
Nautical Twilight 5:43 AM CST 6:28 PM CST
Astronomical Twilight 5:10 AM CST 7:00 PM CST
Moon 10:26 AM CST (2/17) 12:32 AM CST (2/17)
Length of Visible Light 11h 38m
Length of Day
10h 40m
Waxing Crescent, 49% of the Moon is Illuminated
Feb 17
Waxing Crescent
Feb 17
First Quarter
Feb 25
Full
Mar 4
Last Quarter
Mar 11
New

Hourly Weather History & Observations

Time (CST) Temp. Windchill Dew Point Humidity Pressure Visibility Wind Dir Wind Speed Gust Speed Precip Events Conditions
12:52 AM 10.9 °F 2.9 °F -2.0 °F 56% 30.21 in 10.0 mi NW 4.6 mph - N/A   Clear
1:52 AM 10.0 °F -0.9 °F -2.0 °F 58% 30.20 in 10.0 mi WNW 6.9 mph - N/A   Clear
2:52 AM 10.0 °F -1.9 °F -2.0 °F 58% 30.20 in 10.0 mi WNW 8.1 mph - N/A   Clear
3:52 AM 10.0 °F 0.4 °F -0.9 °F 61% 30.20 in 10.0 mi WNW 5.8 mph - N/A   Clear
4:52 AM 9.0 °F - -0.9 °F 64% 30.21 in 10.0 mi Calm Calm - N/A   Clear
5:52 AM 9.0 °F -0.9 °F -0.9 °F 64% 30.23 in 10.0 mi WNW 5.8 mph - N/A   Partly Cloudy
6:52 AM 9.0 °F 0.6 °F -0.9 °F 64% 30.23 in 10.0 mi WNW 4.6 mph - N/A   Partly Cloudy
7:52 AM 10.9 °F 4.7 °F -0.9 °F 59% 30.24 in 10.0 mi NW 3.5 mph - N/A   Partly Cloudy
8:52 AM 15.1 °F - 1.0 °F 54% 30.24 in 10.0 mi Calm Calm - N/A   Partly Cloudy
9:52 AM 17.6 °F 12.3 °F -0.4 °F 45% 30.19 in 10.0 mi Variable 3.5 mph - N/A   Partly Cloudy
10:52 AM 19.0 °F 13.9 °F -2.9 °F 38% 30.23 in 10.0 mi ESE 3.5 mph - N/A   Partly Cloudy
11:52 AM 21.0 °F 14.6 °F -0.9 °F 38% 30.22 in 10.0 mi South 4.6 mph - N/A   Scattered Clouds
12:52 PM 21.9 °F 15.7 °F -0.0 °F 38% 30.20 in 10.0 mi SSW 4.6 mph - N/A   Partly Cloudy
1:52 PM 23.0 °F 13.9 °F 1.0 °F 39% 30.19 in 10.0 mi SSW 8.1 mph - N/A   Partly Cloudy
2:52 PM 23.0 °F 14.7 °F 3.0 °F 42% 30.16 in 10.0 mi SSW 6.9 mph - N/A   Partly Cloudy
3:52 PM 24.1 °F 15.2 °F 3.9 °F 42% 30.14 in 10.0 mi South 8.1 mph - N/A   Scattered Clouds
4:52 PM 24.1 °F 16.0 °F 5.0 °F 44% 30.12 in 10.0 mi SSE 6.9 mph - N/A   Scattered Clouds
5:52 PM 21.0 °F 13.4 °F 9.0 °F 60% 30.13 in 10.0 mi SSE 5.8 mph - N/A   Scattered Clouds
6:52 PM 21.9 °F 15.7 °F 10.0 °F 60% 30.12 in 10.0 mi South 4.6 mph - N/A   Scattered Clouds
7:52 PM 23.0 °F 14.7 °F 10.9 °F 60% 30.10 in 10.0 mi SSE 6.9 mph - N/A   Scattered Clouds
8:52 PM 25.0 °F 15.5 °F 10.9 °F 55% 30.08 in 10.0 mi SSE 9.2 mph - N/A   Mostly Cloudy
9:52 PM 25.0 °F 16.3 °F 10.0 °F 53% 30.07 in 10.0 mi South 8.1 mph - N/A   Mostly Cloudy
11:52 PM 28.9 °F 19.2 °F 17.1 °F 61% 30.02 in 10.0 mi SSE 11.5 mph - N/A   Overcast